Location: Wiesbaden
(50.0830°N, 8.2500°E)
Time: 07:40:33
(UTC+02:00)

ISS - Pass Details

Date: 23 May 2019
Orbit: 408 x 418 km, 51.6° (Epoch: 27 May)

Event Time Altitude Azimuth Distance (km) Brightness Sun altitude
Rises 01:52:24 0° 287° (WNW) 2,362 0.2 -19.1°
Reaches altitude 10° 01:54:32 10° 283° (WNW) 1,498 -0.9 -19.1°
Enters shadow 01:56:22 29° 269° (W) 808 -2.4 -19.1°
